Find ACTS

NORAD ID: 22796 Int'l Des: 1993-058 Owner: LERC Country: US operational
HEOCIRCULARGSO

リアルタイム位置

3D地球を読み込み中...

ACTSについて

説明を読み込み中...

次回通過

Passes for default location (London). Set your location on the main map for personalized predictions.

高度履歴

Loading altitude history...

軌道要素

1 22796U 93058B 26105.24245935 -.00000103 00000-0 00000-0 0 9994
2 22796 14.5770 356.0604 0053394 78.2597 110.4198 1.00272120126275
Epoch: Apr 15, 2026 • Age: 26 hours

現在のステータス

高度 35981.8 km
速度 3.06 km/s
衛星直下点 -10.72°S, 106.57°W
打ち上げ日 Sep 12, 1993
運用期間 32.5 years
タイプ other

技術仕様

分類 Payload
質量 1688.00 kg
乾燥質量 1488.00 kg
総質量 2770.00 kg
長さ 9.00 m
直径 4.30 m
スパン 14.40 m
形状 Box + 2 Pan
製造者 MMAS
バスタイプ AS4000
フェーズステータス In Orbit
所有者/国 LERC/US

Most Searched